Find Yaogan 30 hao 03 zu 02 xing

NORAD ID: 43082 Int'l Des: 2017-085 Owner: ZLZB Country: CN Constellation: yaogan operational
LEOCIRCULAR

Live Position

Loading 3D Globe...

About Yaogan 30 hao 03 zu 02 xing

Description loading...

Upcoming Passes

Passes for default location (London). Set your location on the main map for personalized predictions.

Altitude History

Loading altitude history...

Two-Line Element Set

1 43082U 17085B 26106.31365249 .00001570 00000-0 11841-3 0 9997
2 43082 34.9939 167.1744 0004607 169.1224 190.9585 15.02382702453388
Epoch: Apr 16, 2026 • Age: 6 hours

Current Status

Altitude 568.2 km
Velocity 7.58 km/s
Sub-Earth Point -34.21°S, 14.17°E
Launch Date Dec 25, 2017
Age 8.3 years
Type military

Technical Details

Classification Payload
Mass 500.00 kg
Dry Mass 500.00 kg
Total Mass 500.00 kg
Length 0.50 m
Diameter 0.50 m
Span 1.00 m
Shape Box + 2 Pan
Manufacturer SECM
Phase Status In Orbit
Owner/State ZLZB/CN

Most Searched